一网星座-0131星 (ONEWEB-0131 )

导读

ONEWEB-0131是OneWeb星座组网的低轨通信卫星,于2020年12月18日由英国发射入轨。作为全球低轨卫星互联网计划的重要组成部分,它旨在为全球尤其是偏远地区提供高速宽带网络服务,填补地面通信网络覆盖空白,推动全球互联基础设施建设,助力实现万物互联的数字化发展目标。卫星运行在近地轨道,具备低延迟、广覆盖的通信特点。

Basic Information
目录编号:
47277
目录名称:
ONEWEB-0131
国际标识:
2020-100V
轨道中心:
EARTH
卫星名称:
一网星座-0131星
卫星全名:
一网星座-0131星 (ONEWEB-0131 )
卫星状态:
在轨 (已飞行2004 天)
发射日期:
2020-12-18 UTC
国别 :
英国 (GB)
星等 :
--
Orbit Information
数据来源 国际轨道数据 AOE轨道数据
星历时间 2026-06-14T05:47:55+0800
14小时前
查看轨道信息
2026-06-14T17:00:00+0800
2小时前
查看轨道信息
半长轴 7591.861km 7591.87km
偏心率 0.0001754 0.0001729
轨道倾角 87.894° 87.894°
近地点辐角 90.792° 90.011°
升交点赤经 351.323° 351.230°
平近点角 269.341° 314.031°
近地点 1212.392km 1212.42km
远地点 1215.056km 1215.046km
周期 109.719分钟 109.719分钟
每日圈数 13.12443 13.124405
Detailed Information
平衡模式:
三轴稳定
覆盖范围:
全球
运营商:
一网卫星公司
运营商所在国:
英国
制造商(研发单位):
一网卫星公司
制造商所在国:
英国
使用方式:
暂无
Satellite Introduction
OneWeb卫星网络由648颗重约125公斤的微型卫星组成,运行在1200公里的轨道上。 每颗卫星都能够提供至少每秒8千兆位的吞吐量,以使用其高吞吐量的Ku频段有效载荷为家庭和移动平台提供互联网接入。该卫星仍在工作。
2D Orbit Map
3D Orbit Map
Orbit Altitude Analysis Chart
Orbit Inclination Analysis Chart
Orbit Comprehensive Analysis Chart
View Comprehensive Chart